User: anonymous   Login
Location: Muenchen
(48.1800°N, 11.5800°E)
Time: 06:23:30
(UTC+02:00)
Language:

Sich 1 Rocket - Orbit

View from above orbital plane
View from above orbital plane
View from above satellite
View from above satellite

Ground track
Ground track

The orbit data is extracted from the following two-line orbital elements,

1 23659U 95046C   15188.24227230  .00000183  00000-0  21920-4 0  9994
2 23659 082.5299 245.0439 0026784 042.0388 020.1188 14.78074614 69525
Epoch (UTC): 07 July 2015 05:48:52
Eccentricity: 0.0026784
inclination: 82.5299°
perigee height: 616 km
apogee height: 654 km
right ascension of ascending node: 245.0439°
argument of perigee: 42.0388°
revolutions per day: 14.78074614
mean anomaly at epoch: 20.1188°
orbit number at epoch: 6952

The dashed part of the orbit path shows where the satellite is in the earth's shadow,  

DLR